Regional Weather Roundup
Issued by NWS

Home | Current Version | Previous Version | Graphics & Text | Print | Product List | Glossary On
Versions: 1 2 3 4 5 6 7 8 9 10 11 12 13 14 15 16 17 18 19 20 21 22 23 24 25 26 27 28 29 30 31 32 33 34 35 36 37 38 39 40 41 42 43 44 45 46 47 48
000
ASUS45 KBOU 282107
RWRCO

WEATHER ROUNDUP FOR COLORADO
NATIONAL WEATHER SERVICE DENVER/BOULDER CO
200 PM MST WED JAN 28 2015

NOTE: "FAIR" INDICATES FEW OR NO CLOUDS BELOW 12000 FEET WITH NO
SIGNIFICANT WEATHER AND/OR OBSTRUCTIONS TO VISIBILITY.

COZ001>005-013-030-031-282200-
...NORTHWEST COLORADO...

CITY           SKY/WX    TMP DP  RH WIND       PRES   REMARKS
CRAIG          CLOUDY    43  31  62 NW5       30.23F
HAYDEN         CLOUDY    39  28  65 NW10      30.23F
MEEKER         MOSUNNY   46  29  51 NE3       30.23S
MOUNT WERNER   NOT AVBL
STEAMBOAT SPGS NOT AVBL
WALDEN         CLOUDY    36  25  64 SW6G17    30.21R
$$

COZ006>008-011-282200-
...WEST CENTRAL VALLEYS...

CITY           SKY/WX    TMP DP  RH WIND       PRES   REMARKS
GRAND JUNCTION SUNNY     51  34  52 NW8       30.22F
MONTROSE       MOSUNNY   52  28  39 N8        30.23F
EAGLE          NOT AVBL
RIFLE          MOSUNNY   51  27  39 W3        30.22F
DELTA          MOSUNNY   57  30  36 SW7       30.22F
NUCLA          MOSUNNY   50  30  46 NW6       30.27F
$$

COZ017>023-064>068-282200-
...SOUTHWEST COLORADO...

CITY           SKY/WX    TMP DP  RH WIND       PRES   REMARKS
DURANGO        PTSUNNY   49  30  48 SW10      30.21F
CORTEZ         SUNNY     52  28  39 W10       30.23F
PAGOSA SPRINGS PTSUNNY   48  23  36 W3        30.23F
TELLURIDE      NOT AVBL
WOLF CREEK PAS NOT AVBL
$$

COZ009-010-012-014-032>034-037-058>063-282200-
...CENTRAL COLORADO...

CITY           SKY/WX    TMP DP  RH WIND       PRES   REMARKS
ASPEN          CLOUDY    42  25  50 N8        30.23F
BUENA VISTA    MOSUNNY   48  15  27 W14G26    30.17F
COPPER MTN     PTSUNNY   28  14  54 W37G46    30.25F HAZE    WCI  11
BERTHOUD PASS  SNOW      18  10  73 N13G24    30.28R VSB<1/4 WCI   4
COTTONWOOD PAS MOSUNNY   41  10  28 W15G28    30.22R
GUNNISON       SUNNY     36  21  55 N7        30.28F
KREMMLING      CLOUDY    41  21  45 NW9       30.24R
LEADVILLE      MOSUNNY   34  14  43 NW14G24   30.24R WCI  25
MONARCH PASS     N/A     23  21  93 MISG      30.36F
SALIDA         MOSUNNY   52  19  26 W20G31    30.24F
SUNLIGHT       PTSUNNY   34  27  75 CALM      30.31S
WILKERSON PASS SUNNY     32  14  47 W8G16     30.26F WCI  25
$$

COZ069>075-282200-
...SAN LUIS VALLEY/SANGRE DE CRISTO MOUNTAINS...

CITY           SKY/WX    TMP DP  RH WIND       PRES   REMARKS
ALAMOSA        MOSUNNY   48  23  37 CALM      30.19F
LA VETA PASS   NOT AVBL
SAGUACHE       SUNNY     43  25  49 NW21G26   30.21F
$$

COZ035-036-038>040-282200-
...NORTHERN COLORADO FRONT RANGE...

CITY           SKY/WX    TMP DP  RH WIND       PRES   REMARKS
DENVER INTL AP MOSUNNY   59  18  20 NW24G35   30.05R
DMNS CITY PARK   N/A     59  16  18 NW10G21   30.05R
AURORA         MOSUNNY   58  18  20 NW15G28   30.06R
FRONT RANGE AP MOSUNNY   59  23  25 NW17G23   30.06R
ERIE MUNI ARPT SUNNY     61  17  18 N14G20    30.04R
BOULDER MUN AP MOSUNNY   61  21  21 N12G20    30.03R
CENTENNIAL     MOSUNNY   57  18  21 N22G29    30.06R
BROOMFIELD     NOT AVBL
FORT COLLINS   MOSUNNY   57  21  24 NW24G32   30.05F
LONGMONT       MOSUNNY   60  20  21 W9G16     30.05S
$$

COZ041-046-047-076>085-087-088-282200-
...PIKES PEAK/PALMER DIVIDE AND SOUTHERN FOOTHILLS...

CITY           SKY/WX    TMP DP  RH WIND       PRES   REMARKS
COLO. SPRINGS  MOSUNNY   58  14  17 W22G35    30.06F
A. F. ACADEMY  SUNNY     55  12  18 NW20G28   30.05F
ELLICOTT       SUNNY    N/A N/A N/A NW17      30.05S
FALCON         SUNNY     57  13  18 NW14G28   30.09S
FORT CARSON    SUNNY     61  17  18 N6G18     30.04F
LIMON          MOSUNNY   59  19  21 NW30G37   30.03R
MONUMENT HILL  SUNNY     52  18  25 NW14G23   30.08S
TRINIDAD       MOSUNNY   59  25  27 NW23G30   30.06R
$$

COZ042>045-048>051-090-091-282200-
...NORTHEAST COLORADO...

CITY           SKY/WX    TMP DP  RH WIND       PRES   REMARKS
GREELEY ARPT   PTSUNNY   59  27  29 NW24G33   30.02R
AKRON          MOSUNNY   57  29  34 NW33G45   30.00R
BURLINGTON     SUNNY     63  24  22 NW35G48   29.97S
WRAY           SUNNY     63  31  30 NW35G45   29.96R
STERLING       MOSUNNY   61  36  39 NW33G45   30.00R
HOLYOKE        SUNNY     63  32  31 NW25G36   29.94R
FORT MORGAN    PTSUNNY   57  27  32 NW29G43   30.04R
$$

COZ086-089-092>099-282200-
...SOUTHEAST COLORADO...

CITY           SKY/WX    TMP DP  RH WIND       PRES   REMARKS
PUEBLO         SUNNY     66  20  17 NW20      30.01F
LA JUNTA       MOSUNNY   68  20  16 NW15      30.00S
LAMAR          MOSUNNY   70  22  16 NW20G25   29.96F
SPRINGFIELD      N/A     65  25  22 NW15      30.00S
$$


USA.gov is the U.S. government's official web portal to all federal, state and local government web resources and services.